Theta_e
333 333 332 332 332 332 332 332 333 332 331 331 329 330 331 331 331 331 331 330 329 329 328 328 330 330 331 332 332 332 331 330 329 328 325 319 320 325 328 331 331 331 330 330 330 330 330 328 327 328 326 324 322 317 315 315 317 317 316 314 313 311 310 309 308 307 306 307 307 309 312 314 315 317 318 319 320 321 321 320 320 319 320 320 319
331 332 333 332 333 333 332 332 332 331 330 330 330 330 330 330 330 331 330 329 329 329 328 328 329 328 329 331 329 329 331 331 327 323 321 319 321 325 329 331 331 331 330 330 330 330 330 329 327 327 327 326 325 322 318 319 321 323 322 320 318 316 314 311 310 308 307 307 307 307 307 309 313 314 315 315 317 320 320 320 320 319 319 319 319
330 332 333 332 333 333 332 332 332 332 331 331 331 330 330 331 330 330 329 329 330 328 328 329 328 327 328 329 330 330 331 332 329 323 322 321 323 328 329 330 330 330 330 329 330 329 329 329 327 326 327 328 326 323 322 322 323 324 324 323 322 321 318 315 312 310 309 308 307 306 305 305 307 308 309 310 313 318 319 320 320 319 319 319 319
332 333 334 333 333 333 333 334 333 333 333 331 331 331 331 331 330 329 328 329 329 328 328 328 328 328 328 329 330 330 330 331 331 328 324 322 325 328 328 329 329 329 330 330 329 329 329 329 328 326 327 328 326 324 324 325 324 323 322 322 323 324 322 318 315 313 311 311 310 309 307 305 304 304 304 306 308 312 315 317 319 319 319 319 319
332 333 334 334 334 334 335 336 335 335 334 332 331 331 332 331 330 330 329 329 329 329 328 328 328 327 328 328 328 329 330 332 332 329 324 323 324 325 325 327 328 327 328 329 328 328 328 328 328 327 327 328 327 326 326 325 324 323 322 323 324 325 324 321 318 315 312 312 312 311 310 309 308 305 303 303 305 307 310 313 315 317 317 317 318
332 333 333 333 334 334 335 336 336 336 334 332 331 332 334 333 332 331 330 331 330 329 329 328 328 327 327 327 328 328 329 330 331 329 326 323 323 323 323 324 325 325 326 327 328 328 328 328 328 328 327 327 327 327 327 325 325 325 325 326 327 326 325 322 320 317 314 313 313 313 312 312 311 310 307 304 303 304 306 308 310 312 313 314 316
333 334 333 333 333 333 334 334 335 335 333 332 332 332 333 333 333 332 331 331 330 329 328 328 329 329 329 328 328 328 328 329 330 332 328 325 324 324 324 324 325 325 323 325 327 327 328 328 328 328 328 328 327 327 328 328 327 328 328 328 329 328 328 324 321 319 318 317 317 316 314 313 313 312 311 310 306 304 303 305 306 308 309 311 313
333 333 333 332 332 332 332 333 334 334 332 332 332 332 333 332 332 331 330 330 330 329 328 328 329 330 330 329 328 329 329 329 330 332 330 328 328 327 326 326 326 326 325 325 327 328 328 328 328 328 328 328 328 329 329 329 330 330 329 330 330 330 330 327 325 323 322 322 321 320 318 319 319 316 315 313 310 307 304 304 305 306 307 309 311
334 333 333 332 331 332 332 333 334 334 333 332 331 332 332 332 331 330 329 329 329 329 328 328 329 330 331 330 329 329 330 329 330 331 331 330 331 330 329 329 328 326 326 327 327 328 329 329 329 329 329 329 329 330 330 330 330 330 330 331 331 331 331 330 329 328 327 326 325 323 322 322 323 322 321 317 314 311 307 305 306 306 307 308 310
333 333 333 332 332 332 332 333 333 333 332 332 331 331 331 331 331 330 330 329 329 328 327 327 329 330 331 331 329 328 329 330 330 331 331 331 331 331 332 331 330 329 327 327 327 327 328 328 329 329 329 329 329 330 330 331 331 331 331 331 332 332 331 331 331 331 330 329 328 327 326 325 324 323 323 321 319 317 312 308 307 306 305 305 307
333 333 332 332 333 333 332 332 333 333 332 332 332 331 331 330 330 330 330 329 329 328 327 328 328 330 331 331 330 328 330 330 331 331 331 331 331 331 331 331 331 331 330 328 327 327 327 327 328 328 328 329 329 329 330 330 330 331 331 331 331 330 331 331 331 331 331 331 330 329 329 328 328 325 324 323 322 320 318 314 312 309 306 304 302
333 333 333 332 332 332 332 332 332 332 331 332 331 331 330 330 329 330 330 329 329 329 329 329 328 329 329 330 330 329 330 330 330 331 331 330 331 331 331 330 331 331 331 331 329 329 328 328 328 328 328 328 328 329 329 328 328 329 330 330 331 331 331 331 331 331 331 331 331 330 330 329 330 329 328 326 324 323 321 319 317 316 314 311 305
334 334 334 333 332 332 332 331 331 331 331 331 331 330 330 330 330 330 330 329 329 329 329 329 328 329 329 329 329 328 328 330 330 330 330 329 330 330 330 331 330 330 330 330 330 330 330 330 329 329 329 329 328 327 325 325 325 326 326 327 330 331 331 331 331 331 331 331 331 330 330 330 330 330 330 329 327 325 324 322 321 320 319 318 313
334 334 334 333 332 332 331 331 331 331 331 330 330 331 330 330 331 330 331 330 330 330 330 329 329 329 328 328 329 328 328 329 329 330 330 330 330 330 330 331 331 330 330 330 330 330 330 330 330 329 330 329 326 324 323 324 324 323 322 323 326 329 330 331 331 331 331 330 330 330 330 330 330 330 330 330 329 328 326 325 323 323 321 320 318
333 333 333 332 332 332 332 331 331 331 331 331 331 331 330 331 331 331 332 331 330 330 330 329 329 329 329 331 332 331 329 327 327 328 329 330 330 330 330 330 330 330 330 330 330 330 329 329 329 329 329 327 324 324 325 325 324 322 318 318 320 323 325 327 328 329 330 330 330 330 330 330 330 330 329 329 329 329 329 327 325 324 323 321 320
331 331 332 332 332 331 332 332 331 331 331 331 330 330 330 330 332 332 332 330 330 329 330 329 329 329 331 332 331 331 331 328 326 327 327 327 328 328 329 329 329 329 329 329 328 328 328 327 327 327 327 326 325 325 326 325 323 320 318 318 319 320 321 323 324 326 327 328 328 329 329 329 329 329 329 329 330 329 329 329 328 326 325 323 322
330 330 330 330 331 331 331 331 331 331 331 331 331 330 330 330 331 332 332 330 330 329 330 329 329 329 331 331 331 333 333 328 326 327 326 326 327 327 328 329 328 328 328 327 326 327 327 327 327 327 327 327 326 325 324 322 322 321 321 321 322 322 323 325 327 327 326 327 327 327 328 328 328 328 327 327 328 328 329 329 329 328 327 326 324
331 330 328 328 328 329 330 330 330 331 331 330 331 330 330 330 330 331 331 331 330 329 330 329 328 330 330 331 332 333 331 328 328 328 326 326 326 326 327 326 326 325 325 325 325 326 326 326 326 325 325 325 324 322 321 320 319 319 319 319 321 323 324 326 328 328 327 327 326 327 327 327 327 326 326 326 326 326 327 328 329 329 329 327 326
327 327 327 328 328 328 329 330 330 330 331 330 330 330 330 330 330 331 330 330 329 329 329 329 329 331 331 330 329 329 329 329 329 327 325 324 324 325 326 325 325 324 324 325 325 326 326 325 323 322 322 320 319 318 317 316 315 314 314 314 317 319 322 323 324 324 324 324 323 323 324 324 325 326 324 324 325 326 326 327 328 328 329 328 328
327 325 326 328 328 328 328 328 328 329 330 329 330 330 330 330 330 331 331 330 329 329 330 330 330 331 331 330 328 328 328 327 325 323 323 322 322 323 324 324 323 322 322 323 325 325 324 323 322 321 320 316 314 313 312 312 311 311 311 311 312 314 315 315 316 316 317 318 318 317 317 319 321 323 322 321 322 324 325 326 327 327 327 328 327
327 326 326 326 327 327 327 327 327 328 328 328 330 330 330 329 330 330 330 330 330 329 329 330 331 330 330 329 329 328 328 327 325 322 321 322 323 322 320 320 320 320 321 322 322 322 321 321 320 318 316 312 310 309 309 309 309 309 308 308 309 309 309 309 309 309 310 312 313 312 312 312 314 316 317 317 317 319 321 322 323 325 326 326 326
326 325 326 327 326 326 326 326 326 327 328 329 330 330 329 329 329 329 330 330 329 328 328 329 330 330 330 329 328 328 328 327 325 322 321 321 323 322 319 318 318 318 319 320 320 319 319 318 317 315 312 308 306 306 306 306 306 306 306 306 306 306 306 306 306 306 306 307 308 308 308 308 309 309 310 311 311 312 314 315 316 319 322 323 324
325 325 325 326 326 326 325 325 326 326 327 327 328 328 329 330 330 330 330 330 329 328 328 328 328 329 330 329 328 327 327 326 325 323 322 321 322 321 319 318 317 317 317 318 318 318 317 316 316 315 313 309 305 303 303 303 304 303 303 303 302 303 303 303 303 303 303 303 304 305 305 305 306 306 306 307 307 308 309 310 310 312 314 316 318
324 324 324 325 325 326 326 325 325 325 325 325 326 327 329 331 331 330 330 329 328 328 328 327 327 328 328 328 328 328 327 326 324 323 322 320 321 320 318 318 317 317 317 317 317 317 316 315 315 314 313 310 306 302 301 302 302 301 300 300 300 300 300 300 300 300 300 300 300 301 301 301 302 302 303 303 304 305 305 306 307 308 309 310 311
324 323 323 324 325 325 324 324 324 324 324 325 325 327 328 329 330 329 328 327 327 328 327 327 326 326 326 327 327 327 327 326 324 323 322 320 320 319 317 317 317 317 317 315 316 316 315 315 313 312 312 310 306 303 303 303 302 300 299 299 299 299 299 299 299 299 299 299 299 299 299 299 299 299 299 300 300 301 301 302 303 304 305 307 308
324 322 322 324 325 325 324 324 324 323 323 324 325 326 327 328 328 328 327 327 327 327 326 325 325 325 325 325 325 326 326 326 324 323 323 322 320 318 316 316 315 315 314 313 313 313 313 314 313 312 311 310 307 305 305 306 305 303 302 300 299 300 301 301 301 301 302 301 301 300 300 299 299 299 299 299 299 298 299 299 300 300 301 302 303
323 322 323 324 324 324 323 323 323 323 322 323 325 325 326 327 327 327 327 326 326 326 326 326 325 324 324 324 324 325 325 326 324 323 324 322 320 317 315 315 315 313 311 309 310 311 311 312 311 310 310 308 307 306 305 307 308 307 305 303 301 303 305 305 305 304 304 304 303 303 303 302 301 301 301 300 300 299 299 299 299 298 298 299 299
322 322 324 323 322 323 323 322 321 321 322 322 323 323 324 326 326 326 326 325 324 323 323 324 324 324 323 323 323 323 323 324 323 323 323 323 321 317 314 314 315 314 312 309 308 308 310 310 309 309 308 307 307 304 304 307 309 309 307 305 304 305 307 307 306 306 306 306 305 305 305 304 303 303 303 302 302 302 301 301 300 300 299 299 298
321 322 324 323 322 322 321 320 320 321 320 320 320 321 322 323 324 324 323 323 320 318 317 317 318 319 319 320 321 321 320 320 320 322 321 322 321 317 313 313 314 314 314 312 309 307 308 309 308 308 307 306 306 304 303 306 307 307 307 307 306 306 307 307 307 307 307 307 307 307 307 306 305 304 303 303 303 303 302 302 302 301 301 300 299
321 322 323 322 320 320 320 320 321 321 320 319 319 318 319 320 321 320 320 319 317 315 315 315 315 315 315 316 317 317 316 316 317 318 318 318 318 316 314 314 313 312 312 314 313 308 307 308 308 308 307 306 305 305 305 307 307 306 307 307 307 307 307 307 308 308 308 308 308 308 307 307 306 305 304 303 303 303 303 303 302 302 302 300 299
320 320 320 318 318 318 318 319 320 320 319 318 318 318 317 317 317 317 317 316 316 317 317 317 316 315 315 314 315 315 315 315 315 316 316 316 317 316 316 315 313 311 310 311 313 310 307 307 307 307 307 306 306 307 308 308 308 307 307 307 307 307 307 307 308 308 308 308 308 308 308 307 307 306 304 302 302 302 302 303 302 302 302 300 300
319 319 317 316 315 315 316 316 318 319 318 317 317 316 316 315 315 316 315 316 317 318 318 317 316 315 315 316 317 316 316 316 316 316 316 316 316 317 317 315 313 312 310 309 310 310 308 307 308 307 307 306 307 308 308 309 308 309 308 308 307 307 307 307 308 308 308 309 308 308 307 307 307 307 305 303 303 302 303 302 302 302 302 301 300
318 317 316 315 314 313 314 315 315 316 315 314 314 314 314 315 315 315 315 316 318 318 317 316 316 316 317 317 317 316 316 316 316 316 315 316 316 316 316 315 313 311 312 310 309 309 308 308 308 308 308 307 307 308 309 308 309 309 309 308 308 308 308 307 308 309 309 309 308 307 307 306 307 306 305 305 304 303 303 303 303 303 302 302 302
316 316 316 315 314 313 313 313 314 314 313 313 313 313 313 313 314 314 315 317 318 318 317 317 316 317 317 316 316 316 315 315 316 315 315 315 315 316 315 315 314 313 313 312 309 309 309 309 309 309 309 309 309 308 308 309 310 310 309 309 308 308 308 308 308 308 308 308 307 307 306 306 306 306 305 305 304 304 303 302 303 303 303 303 302
316 316 316 315 314 314 313 313 313 313 313 313 313 312 312 313 314 314 315 317 317 317 317 317 316 317 316 316 316 315 315 315 315 315 315 316 316 315 315 315 315 314 314 313 311 310 310 309 309 310 311 311 310 309 308 309 310 310 310 309 309 309 309 309 308 307 306 307 307 307 306 306 306 306 305 305 305 304 303 302 302 303 303 303 303
315 316 315 315 315 314 313 313 313 313 314 315 314 312 313 315 315 314 315 316 317 316 316 316 316 316 316 316 315 315 315 315 315 316 316 315 315 315 315 315 315 314 314 314 313 312 311 310 310 310 311 311 310 309 309 310 310 310 310 310 310 310 310 309 308 306 305 305 307 306 306 306 306 306 305 305 304 304 302 302 302 302 303 303 303
315 316 315 314 314 315 314 313 313 314 314 315 315 314 315 316 315 315 316 316 316 316 316 316 315 315 315 315 315 315 314 314 315 316 316 316 315 315 315 315 315 315 314 314 314 313 312 310 310 310 311 312 311 310 310 310 310 310 310 310 310 310 310 309 308 306 305 305 306 306 305 305 306 305 304 304 303 302 302 302 303 303 303 303 303
316 316 314 314 315 315 315 314 314 314 314 315 315 315 316 316 315 315 315 315 315 315 315 315 315 314 314 313 314 314 314 314 314 315 315 316 316 315 315 315 315 314 315 314 314 314 313 311 311 311 312 312 312 311 310 310 310 310 310 310 309 309 309 308 308 307 306 306 306 306 305 305 305 305 304 303 302 301 302 303 303 303 303 303 303
318 317 314 313 315 315 315 315 314 315 315 315 314 315 315 316 315 315 315 315 315 315 314 315 315 315 314 313 312 313 314 314 314 314 315 316 316 315 315 315 315 314 314 314 314 314 314 313 312 312 313 312 312 311 310 310 310 310 309 309 309 308 308 308 307 307 307 306 306 305 305 305 305 304 303 301 301 301 302 303 303 303 303 303 303
319 320 316 315 316 315 314 315 315 315 315 315 314 315 314 315 315 315 315 315 316 315 314 315 315 315 316 315 313 314 315 315 315 315 315 315 316 316 315 315 315 315 315 315 315 315 314 314 314 313 313 312 312 312 311 310 310 309 309 308 308 308 308 307 307 306 306 306 306 305 305 304 303 302 301 301 301 302 303 303 303 302 302 302 302
318 320 318 317 317 317 315 315 315 315 315 315 315 315 315 315 315 315 315 315 316 316 315 315 315 316 316 316 315 315 316 316 316 316 315 315 316 316 315 315 315 315 315 316 315 315 315 314 314 313 312 313 313 312 310 310 309 309 308 308 308 307 307 307 307 306 306 305 304 303 302 301 300 300 301 301 302 302 303 303 302 302 302 302 301
319 319 318 317 317 317 317 317 317 316 315 315 315 315 316 316 316 316 316 316 315 316 317 316 316 316 317 317 316 316 317 317 317 317 316 315 315 315 316 316 315 315 315 315 315 316 315 315 314 313 312 312 312 311 310 309 309 308 308 308 307 307 307 307 306 305 305 303 301 300 300 300 300 301 301 302 302 303 303 303 302 301 301 301 301
320 319 319 319 318 317 317 318 318 317 315 314 315 315 315 316 316 316 316 316 316 317 317 317 316 316 316 317 318 317 317 317 318 318 317 316 315 316 316 316 316 315 315 315 315 315 315 314 314 313 312 311 311 310 310 309 308 308 307 306 306 306 305 305 304 303 302 300 299 299 299 299 300 301 301 302 302 303 303 302 301 301 301 300 300
322 321 321 320 320 320 319 318 319 318 316 315 315 315 315 315 316 316 316 317 317 317 318 318 318 318 317 317 318 318 318 318 317 317 317 317 316 316 316 316 316 315 315 315 315 315 315 314 313 312 311 311 310 309 309 309 308 307 306 306 305 304 303 302 301 300 299 298 299 299 300 299 300 301 301 301 301 302 301 301 300 300 300 299 299
323 322 321 321 321 321 321 320 319 319 318 317 317 317 316 315 316 317 317 318 318 318 319 320 319 320 319 318 318 319 318 318 318 318 318 318 318 317 316 316 316 315 314 314 315 315 315 314 312 311 311 310 310 309 309 308 307 306 305 304 304 302 301 299 298 298 298 298 299 299 300 300 300 300 300 300 300 300 300 299 299 299 299 299 299
323 323 323 322 321 321 322 321 320 320 319 318 318 318 317 316 316 317 319 321 321 320 320 321 321 320 320 320 320 320 319 319 318 318 318 318 318 318 317 316 315 314 314 313 313 313 313 312 311 310 310 310 310 309 308 307 306 305 304 303 301 299 298 297 297 297 298 298 299 299 299 299 299 299 299 299 299 298 298 298 298 298 298 298 298
323 324 324 324 323 323 322 322 321 321 320 320 320 319 318 318 318 317 319 321 323 322 322 322 321 320 319 319 320 320 320 319 318 317 317 318 317 318 318 317 315 313 313 312 311 311 311 311 310 309 309 310 309 308 306 305 304 303 302 300 298 297 297 298 297 298 298 299 299 298 298 298 298 298 298 298 297 298 298 298 297 297 297 297 297
323 324 323 323 324 324 323 323 322 322 321 321 320 320 320 319 318 317 318 319 321 322 321 321 321 321 320 319 319 320 321 319 318 317 316 317 317 317 318 316 314 313 312 312 311 310 309 309 308 309 309 308 307 305 304 303 302 301 300 299 298 298 298 298 298 298 299 299 298 298 297 297 297 297 296 297 297 297 297 297 297 296 296 296 296
320 321 322 323 323 323 323 323 323 322 322 321 321 320 320 319 318 318 317 317 319 320 320 320 320 320 320 319 318 320 319 318 318 317 316 316 317 317 317 315 313 311 311 310 309 308 308 308 308 307 306 305 304 304 303 302 300 300 300 299 299 298 298 298 298 299 299 298 297 297 297 296 296 296 296 296 296 296 296 296 296 296 296 296 295
314 316 317 320 321 322 322 322 322 321 321 321 320 320 319 319 320 320 318 318 319 319 319 319 319 319 319 319 318 318 317 317 316 317 317 317 317 317 317 315 311 309 308 308 308 307 307 307 306 305 304 304 303 302 301 300 300 300 300 300 299 298 298 298 298 298 298 297 297 296 296 296 295 295 295 295 295 295 295 295 295 295 295 294 294
310 311 312 314 317 319 320 320 320 321 320 320 320 320 320 320 320 321 320 319 320 320 318 318 318 317 318 318 317 317 317 316 316 317 317 317 317 317 316 313 310 309 308 308 307 307 306 305 304 304 304 303 302 301 301 301 301 301 301 300 299 298 298 298 297 296 296 297 296 296 295 295 294 294 294 294 293 294 294 294 294 294 294 294 294
Wind_Speed
11 11 11 10 11 11 10 10 8 6 6 7 5 4 6 5 4 4 5 5 4 6 8 6 4 5 4 7 8 8 11 11 9 8 8 10 12 13 14 14 12 10 11 11 10 9 8 8 9 8 7 9 9 9 10 11 12 12 11 11 10 11 11 11 11 11 11 11 11 11 10 10 11 11 10 10 10 11 11 11 11 12 13 12 12
12 12 12 11 12 11 10 10 9 7 5 7 5 2 3 5 4 4 5 3 3 6 9 11 10 7 3 1 4 9 11 9 9 9 10 10 11 13 14 14 13 10 10 10 10 10 9 9 9 8 6 8 8 7 8 10 11 11 10 10 9 9 9 9 10 10 10 10 10 10 9 9 9 9 9 9 10 10 10 11 10 11 12 12 13
12 13 11 11 11 10 9 9 9 8 5 5 4 2 2 4 3 4 3 1 3 6 9 15 18 8 4 4 6 10 10 10 10 10 9 10 12 13 14 13 13 12 10 9 9 9 9 9 8 7 6 6 8 7 7 7 8 9 9 9 9 9 9 8 9 9 9 10 10 9 9 9 9 8 9 8 8 9 9 10 10 10 11 11 12
12 12 10 10 9 8 7 7 7 6 5 4 3 2 2 3 2 3 3 2 2 5 9 14 20 13 7 8 9 10 11 11 11 9 9 10 12 12 12 12 13 13 12 10 9 8 8 8 8 8 7 6 6 7 7 5 5 7 7 7 7 8 8 8 8 8 9 9 9 9 9 9 9 8 8 8 8 8 8 8 9 9 10 10 11
12 12 11 10 8 8 7 5 5 4 4 4 2 2 4 4 2 2 2 1 1 5 8 11 18 15 9 6 8 9 11 13 11 9 9 10 11 11 11 11 12 12 12 12 11 9 8 8 7 8 8 7 6 7 6 4 4 5 7 8 8 7 7 7 7 7 7 8 8 8 8 8 8 8 8 8 8 7 7 7 7 7 7 8 9
13 13 12 11 9 9 9 6 6 5 4 4 3 3 4 4 3 2 1 1 1 5 7 10 15 16 11 6 7 8 10 13 12 11 10 11 11 11 11 11 11 10 11 12 12 10 9 9 8 8 9 8 7 6 5 5 6 5 7 9 9 9 8 7 6 7 7 7 7 6 6 6 6 7 7 7 7 7 6 6 6 6 5 6 7
13 12 11 12 10 10 9 8 7 7 6 5 5 5 5 5 5 3 2 3 3 4 6 10 15 17 14 11 10 9 9 11 13 14 13 13 13 12 12 12 11 9 10 12 12 11 9 8 9 9 9 8 7 6 4 4 5 4 4 6 7 7 8 8 7 7 6 6 6 6 6 6 5 5 5 6 6 6 6 6 5 5 5 5 5
10 9 9 11 11 9 8 7 8 9 7 6 6 5 6 6 5 4 2 2 3 4 5 9 16 18 15 13 13 12 12 12 15 16 15 14 14 13 13 13 12 10 10 11 11 10 8 7 8 9 10 9 8 6 5 3 2 2 2 1 3 4 5 6 7 7 7 6 6 6 6 6 6 6 4 4 4 4 5 5 5 4 4 4 5
8 8 8 9 9 8 7 7 8 10 8 6 6 5 6 6 4 4 3 3 3 4 6 9 14 18 15 14 15 15 16 16 16 17 17 15 13 12 12 12 12 11 11 11 10 10 9 8 7 8 9 9 8 6 6 5 3 3 2 1 0 1 2 3 3 4 5 6 7 6 5 5 6 6 5 4 3 3 3 4 3 3 3 3 4
7 7 8 8 9 8 8 8 10 10 8 6 5 6 6 6 5 4 3 3 3 3 4 6 13 17 16 15 15 15 15 16 16 15 16 16 13 10 10 12 12 11 11 10 10 10 9 8 7 7 7 6 6 5 3 2 2 2 1 1 1 1 1 1 1 2 3 4 5 6 5 5 5 6 6 5 4 3 2 2 2 2 2 2 2
6 7 8 8 9 9 8 8 11 10 7 6 6 7 7 6 6 4 5 4 3 3 4 6 12 16 15 15 15 14 14 14 13 12 14 15 12 10 10 13 12 11 10 10 10 10 9 8 7 6 6 5 4 3 2 2 1 1 0 1 1 1 1 2 3 2 3 2 2 3 4 5 4 4 5 4 4 4 3 2 2 1 1 1 1
6 7 6 6 8 9 8 9 11 11 9 9 8 7 7 6 6 5 6 6 5 5 6 9 14 15 14 14 14 13 13 13 12 11 13 13 12 12 11 11 12 11 11 10 10 9 9 8 8 7 6 5 5 4 2 1 2 1 1 1 1 1 0 1 2 3 3 3 4 4 4 4 4 4 4 4 3 2 1 1 2 2 2 1 0
5 6 5 6 7 7 7 8 9 9 8 8 7 6 6 7 6 6 7 8 9 7 8 12 15 13 11 12 13 12 11 12 14 12 11 11 11 12 11 10 10 10 10 10 10 8 7 8 8 8 7 7 7 6 5 3 2 1 1 1 1 2 2 1 0 2 2 2 3 4 5 4 4 5 5 4 4 3 2 2 2 2 2 3 1
3 4 5 5 5 6 7 6 7 7 6 6 6 5 6 7 7 8 8 10 10 8 8 9 10 11 9 10 11 12 13 12 11 7 8 9 10 11 10 10 10 10 10 9 8 8 7 7 9 8 8 9 8 7 5 4 4 3 2 1 1 1 2 2 2 1 0 1 2 3 3 4 4 5 5 5 5 5 4 4 4 4 3 3 3
4 3 4 4 4 6 7 7 8 8 7 7 7 6 8 8 7 9 10 11 10 8 8 6 8 11 8 5 5 7 10 12 10 5 6 7 9 10 8 9 10 10 10 9 8 9 9 9 10 9 8 9 7 5 4 4 5 4 3 3 2 1 1 1 1 2 1 1 1 2 2 2 4 5 5 6 5 6 6 5 5 5 5 4 3
5 6 4 3 4 5 7 8 9 9 9 8 8 8 9 9 9 9 10 12 11 9 8 7 8 11 6 2 3 4 4 7 10 4 5 6 7 9 9 9 11 10 10 10 11 12 13 13 12 12 11 10 7 4 3 5 5 5 5 5 5 4 4 3 3 2 2 2 2 3 3 3 4 5 5 6 6 6 7 6 6 7 6 5 4
5 6 6 5 4 4 6 8 9 9 9 8 8 8 8 9 10 9 9 10 10 11 9 7 8 7 4 4 3 2 2 9 10 3 2 4 5 9 10 10 11 11 12 14 15 15 14 14 14 13 12 10 7 4 4 5 7 9 10 10 10 9 8 10 9 7 6 5 4 4 4 4 4 5 4 5 5 6 7 8 9 9 8 7 6
9 8 7 5 4 4 4 6 7 7 7 7 7 7 8 9 10 9 8 8 9 12 12 10 8 5 4 4 1 2 8 12 8 1 2 4 5 9 11 12 13 13 15 16 16 17 16 15 15 13 11 9 7 5 6 8 10 13 14 14 14 13 12 13 12 10 10 10 8 8 7 7 6 6 5 5 5 6 5 6 8 9 10 10 8
9 8 6 4 4 3 3 4 5 6 6 6 6 6 7 9 10 10 9 8 9 12 14 13 11 6 4 3 2 6 13 13 8 5 4 3 5 9 10 12 13 13 15 16 16 18 19 17 15 13 11 10 9 9 10 11 13 15 16 16 15 15 14 12 12 11 11 11 11 11 11 12 11 11 10 9 7 5 4 5 7 8 10 10 11
6 6 7 6 5 4 3 2 2 6 5 3 5 6 6 7 9 10 9 8 9 10 14 15 12 8 7 6 7 10 13 13 14 13 7 3 4 6 8 10 11 12 14 16 18 19 19 17 13 10 10 11 11 11 12 12 14 15 16 16 15 15 15 14 13 13 12 12 12 13 14 15 15 14 14 14 14 11 7 5 4 6 8 7 9
7 7 8 7 6 5 5 5 2 7 7 3 4 5 6 7 8 9 8 7 8 8 11 15 13 11 10 10 11 12 13 14 17 17 11 7 5 4 8 12 12 13 15 19 20 19 17 15 11 9 9 10 10 10 11 12 13 14 15 14 14 14 14 14 14 14 13 13 14 14 14 15 15 15 14 15 15 15 14 12 10 6 5 4 5
7 8 8 7 7 6 6 7 7 9 8 6 6 5 7 8 8 10 8 7 8 9 11 15 13 13 14 14 14 14 12 11 14 16 11 8 7 6 10 13 12 13 16 18 18 15 13 11 9 9 9 9 9 9 10 11 12 13 13 12 12 12 12 13 13 13 13 13 13 14 14 14 14 14 14 14 14 14 14 14 14 13 10 8 5
7 7 7 7 7 7 7 9 11 10 8 6 5 5 8 10 9 10 10 8 10 11 12 14 13 15 16 15 17 16 13 11 14 17 13 10 8 6 9 14 14 14 16 16 14 12 11 8 7 8 8 9 9 9 9 10 12 12 11 11 11 11 11 12 12 12 12 12 12 12 12 12 12 12 12 12 12 12 13 12 12 12 11 10 9
7 7 7 6 6 8 8 9 11 10 8 7 6 6 8 10 10 10 11 10 11 12 13 13 13 15 15 15 16 16 15 15 17 18 17 17 14 8 10 15 13 12 16 17 14 12 11 9 7 6 6 8 10 10 10 10 12 12 11 11 11 11 12 12 13 13 13 13 12 12 12 12 12 12 12 11 11 11 11 10 10 10 10 10 9
10 8 7 6 6 7 8 9 10 10 9 8 8 8 8 9 10 11 13 13 12 12 13 13 12 12 13 14 16 16 15 17 18 19 20 22 19 12 13 15 11 10 15 16 15 13 11 9 8 5 5 7 9 10 10 11 12 14 13 13 12 13 13 14 15 15 15 15 15 14 14 14 14 13 13 12 12 11 11 10 10 9 9 9 8
12 10 8 7 8 8 8 9 9 10 10 8 9 10 10 10 10 11 14 15 14 13 14 14 12 12 13 14 15 16 17 18 20 21 20 21 21 17 14 11 11 13 13 15 17 15 13 11 9 5 3 5 8 9 10 10 12 14 15 14 13 14 15 16 16 17 17 17 17 16 16 16 16 15 15 14 13 13 12 12 11 11 10 9 9
14 12 9 9 11 11 9 8 10 11 11 10 12 13 11 11 12 14 15 16 14 14 14 14 13 12 12 14 15 16 17 19 21 20 19 20 22 22 19 11 7 8 9 12 16 17 17 15 9 4 2 3 6 8 8 9 10 11 13 13 12 14 15 16 16 17 18 18 18 18 18 18 17 17 16 16 15 15 14 14 13 12 11 10 10
14 13 11 10 12 11 9 10 10 9 10 12 14 13 12 14 15 15 16 15 14 13 12 12 12 11 10 12 14 15 16 16 17 17 17 19 19 22 24 19 10 5 4 6 9 12 16 16 9 3 3 4 5 6 6 6 7 9 11 11 10 11 14 15 15 16 17 18 19 19 20 19 18 18 17 16 16 15 15 15 14 14 13 12 11
13 13 12 11 12 11 11 11 9 9 11 12 12 12 12 14 15 15 15 15 15 15 13 14 16 16 15 14 14 15 13 12 13 14 14 15 16 20 25 26 19 9 4 3 4 7 12 13 10 7 6 6 6 6 6 5 5 6 9 10 9 9 11 14 14 14 15 16 17 18 20 20 20 19 18 17 16 16 15 15 15 15 15 14 13
13 14 13 12 12 12 13 12 11 12 13 12 12 11 10 12 14 15 15 15 15 14 13 15 18 19 20 19 18 16 14 14 16 18 17 16 14 14 20 26 26 17 11 6 3 7 13 12 10 11 10 8 6 6 6 5 4 3 5 8 7 7 8 11 13 12 12 13 14 16 18 19 20 21 19 16 16 17 16 16 16 16 16 15 15
15 16 15 14 13 14 15 13 12 13 12 12 12 10 10 12 14 14 14 15 15 14 14 15 16 17 19 19 18 17 15 16 20 21 20 19 18 15 13 22 27 25 22 16 5 6 13 12 11 12 12 10 8 6 5 6 5 3 3 5 5 4 4 6 9 10 10 11 12 13 15 15 17 20 18 16 17 17 17 18 17 17 16 16 16
17 17 15 15 15 15 15 13 14 15 13 12 12 11 12 12 12 13 14 14 15 16 17 16 16 16 17 17 16 16 16 17 19 19 18 17 17 17 14 18 25 25 25 21 11 7 12 14 14 13 11 10 9 5 3 5 4 2 2 4 2 1 2 3 6 8 9 11 11 11 13 13 14 17 17 16 18 19 19 19 19 18 16 16 18
17 17 16 15 15 15 14 14 15 16 14 12 13 13 14 13 12 13 14 15 16 17 17 17 17 16 16 16 16 15 16 17 16 14 14 15 18 18 16 18 23 21 19 20 18 12 12 13 13 12 11 10 10 6 1 3 3 2 2 3 3 4 5 4 5 9 10 11 10 11 14 14 13 14 16 16 18 19 19 19 18 17 16 16 18
17 17 15 14 15 14 14 14 14 15 14 14 14 14 15 15 14 15 15 16 17 17 18 18 18 17 17 17 15 14 14 15 14 11 11 14 17 19 18 17 18 16 14 18 20 16 14 14 12 11 10 10 11 9 4 0 2 3 2 2 3 3 4 4 7 11 12 12 12 14 16 16 14 13 14 15 17 18 20 20 18 16 15 15 17
16 16 14 13 13 13 14 14 13 14 14 13 13 15 15 14 15 16 16 15 17 18 19 18 17 17 17 16 15 14 14 15 14 12 13 16 16 17 17 17 17 15 13 16 19 18 17 16 13 11 9 9 11 10 7 4 3 2 2 2 2 3 5 7 10 13 14 14 15 16 17 17 15 12 13 15 16 19 22 22 20 18 15 14 15
14 14 14 12 12 13 15 14 13 14 14 12 14 16 14 12 17 20 18 16 18 19 19 17 16 15 16 15 14 14 16 18 18 15 14 14 13 12 13 13 15 15 13 13 14 16 18 17 15 12 9 9 9 9 9 7 3 0 2 5 6 5 5 7 9 12 15 14 14 16 16 15 13 11 14 16 17 21 25 23 20 19 17 15 14
12 12 14 12 11 14 15 13 14 15 14 12 15 16 13 13 19 21 19 18 19 19 17 16 15 15 15 15 14 14 15 16 16 14 12 11 10 10 9 9 12 14 13 11 10 13 16 17 18 14 10 10 8 8 11 10 5 5 6 6 3 1 4 6 6 10 15 13 12 14 14 12 11 11 15 18 21 25 24 19 17 17 16 14 14
10 11 13 12 11 13 13 13 15 15 14 13 16 17 15 14 18 20 19 17 17 18 18 16 15 14 13 14 15 15 14 13 13 11 11 11 11 11 10 9 10 11 11 10 10 11 13 16 19 16 12 10 7 6 9 9 8 8 5 2 1 3 6 7 7 11 14 11 8 10 11 11 11 12 17 23 26 24 19 16 17 16 14 14 13
10 10 12 11 11 12 12 13 15 14 13 14 16 17 17 16 17 18 18 16 14 16 18 16 15 14 13 14 15 14 13 12 11 12 12 12 13 13 12 11 10 9 8 7 7 8 9 11 13 13 11 9 6 6 8 7 7 5 2 0 1 2 5 7 10 12 13 9 8 10 11 11 13 16 21 24 22 17 15 16 17 15 15 14 14
10 9 11 10 10 11 10 11 15 15 14 15 17 17 17 17 17 18 18 16 14 15 17 16 15 14 13 12 12 12 13 12 12 13 14 13 13 14 13 12 10 10 9 6 4 4 4 4 3 4 10 12 9 6 8 7 7 5 2 1 1 4 6 9 12 12 10 10 11 12 13 16 18 19 20 18 15 13 13 15 16 16 17 16 16
12 9 10 10 8 9 9 9 13 16 15 16 18 17 16 17 17 17 18 18 16 16 16 16 16 15 14 14 13 14 14 13 13 13 13 13 12 11 11 12 12 11 10 8 6 5 3 1 4 4 5 8 8 5 7 6 6 5 3 2 4 7 10 13 13 10 9 14 16 17 19 20 19 18 17 15 13 11 12 15 17 18 18 18 18
12 11 10 10 9 9 10 8 10 16 18 17 18 18 16 17 18 17 17 18 17 17 16 17 17 17 17 16 15 16 16 15 14 14 13 12 11 11 10 11 13 13 12 10 8 6 4 2 2 3 6 8 6 6 8 7 5 2 3 5 7 10 13 17 16 12 12 17 21 23 22 18 17 18 18 16 14 11 11 14 15 16 16 16 18
10 11 11 10 9 10 12 11 9 13 18 20 19 19 18 18 19 19 18 17 17 16 16 17 18 19 19 18 17 18 18 17 16 15 14 13 12 12 12 12 13 14 14 12 10 8 5 3 3 4 8 11 9 7 7 5 3 3 6 8 10 12 14 15 15 16 17 18 20 23 21 18 18 20 19 17 16 12 11 13 14 15 16 18 19
6 8 10 11 10 10 12 14 12 12 15 18 19 19 20 20 19 20 19 18 17 17 17 17 18 20 21 21 19 19 18 17 17 16 15 14 14 15 15 13 13 13 13 13 11 9 7 6 5 6 9 11 9 7 4 2 2 5 8 10 12 13 13 12 13 17 19 18 18 21 22 20 19 18 17 16 15 12 11 13 15 16 18 19 19
7 7 9 11 12 11 11 13 14 14 14 15 16 16 19 20 19 19 19 18 18 19 18 18 19 21 22 21 20 19 19 18 17 17 16 16 16 16 16 16 14 13 12 12 11 10 9 9 8 7 8 8 6 4 2 2 5 8 11 12 12 12 12 12 13 17 18 17 18 19 19 18 17 16 16 15 13 12 13 15 16 15 15 15 16
9 10 10 12 14 14 14 14 15 17 17 17 16 16 18 19 19 18 17 15 16 19 20 18 19 20 21 20 19 19 19 19 18 18 18 18 18 17 17 18 17 15 14 13 13 12 10 10 8 6 6 5 4 2 1 4 8 10 11 12 12 11 11 12 13 15 15 15 17 16 13 15 16 15 15 15 14 16 17 16 14 12 11 13 14
7 9 10 11 13 15 17 17 18 20 21 21 21 20 20 20 20 20 18 15 13 16 19 20 19 18 19 21 22 21 21 20 19 19 19 20 20 18 18 19 18 16 15 13 12 11 10 10 9 7 6 5 3 1 3 6 9 10 10 10 10 10 11 12 13 13 11 12 16 15 11 13 17 17 17 18 17 18 16 13 12 13 13 14 15
7 8 9 10 12 14 15 17 18 20 22 22 23 23 23 24 24 24 23 20 17 16 16 18 20 21 20 21 23 24 24 23 22 22 22 22 21 18 18 19 19 17 15 12 11 10 9 9 9 8 7 5 2 2 5 8 9 9 9 8 7 8 11 13 13 12 11 12 15 14 12 14 18 20 21 21 21 19 15 12 13 15 16 17 19
8 9 10 12 13 13 14 16 17 19 21 22 23 23 24 24 26 26 27 26 23 19 16 16 19 20 21 21 22 23 23 24 24 25 25 23 21 18 18 17 16 15 13 12 10 10 9 9 9 7 6 3 2 4 6 8 8 8 7 7 7 9 12 12 10 11 13 12 12 14 15 15 19 23 23 23 23 19 14 13 16 17 19 22 22
12 11 12 13 15 15 16 18 18 19 20 20 20 22 23 24 26 27 28 28 25 21 18 18 18 19 20 22 23 22 22 23 26 26 24 23 21 18 16 16 16 15 14 13 12 12 11 9 7 5 3 2 4 5 6 7 7 7 7 7 7 9 11 10 9 12 13 9 10 17 19 17 19 22 22 22 22 17 12 15 19 21 22 22 20
15 15 16 15 15 17 18 20 21 21 20 19 19 21 22 23 25 27 28 29 27 23 20 20 19 18 18 21 23 23 24 26 27 25 22 22 20 17 17 18 18 17 14 12 12 12 11 8 6 4 1 3 5 6 6 6 7 6 6 6 6 6 6 7 9 11 8 7 13 20 20 17 18 19 18 17 14 11 13 19 22 24 23 20 20
Wind_Direction
176 181 188 195 200 207 213 222 233 243 250 240 242 244 222 219 218 214 240 269 317 359 22 47 113 150 167 195 189 139 128 140 150 155 153 153 151 152 147 143 146 138 134 137 132 131 127 117 116 124 110 92 95 101 107 105 100 95 90 89 88 87 86 84 82 82 82 82 82 80 81 82 86 93 89 84 87 88 88 85 86 85 84 84 82
184 191 197 204 205 211 221 228 234 239 249 230 231 272 220 211 223 232 254 273 346 15 34 44 61 102 93 39 162 135 139 154 149 155 154 151 153 155 152 147 147 140 139 140 136 138 135 130 128 133 127 100 89 94 110 107 98 94 91 89 86 86 87 88 88 87 87 85 83 82 81 82 81 83 83 82 87 89 89 84 79 81 85 85 82
190 196 200 205 209 218 222 221 226 234 250 232 234 285 212 201 226 234 245 282 354 16 38 48 56 91 127 86 159 173 177 166 144 153 153 149 156 156 155 151 150 148 147 144 137 140 137 135 131 133 140 116 88 82 105 103 90 87 84 85 80 78 80 87 94 92 92 89 87 87 84 84 81 78 77 80 88 93 93 88 82 81 83 84 84
199 204 205 206 210 214 211 214 220 229 250 246 242 248 165 171 204 221 227 292 328 27 41 56 66 89 124 108 138 160 171 159 141 154 152 148 157 157 158 159 159 157 152 146 137 137 137 134 130 131 139 133 103 85 98 107 92 79 76 80 73 71 73 81 97 100 100 96 93 94 90 88 84 81 80 79 87 97 100 95 91 89 88 89 91
208 212 214 212 209 205 202 216 225 229 247 250 242 184 138 137 171 216 225 284 314 55 47 63 77 93 113 121 134 137 161 162 145 150 149 145 153 154 159 162 164 163 158 153 144 140 140 136 134 134 134 137 128 100 99 123 118 82 73 76 68 66 69 75 92 101 105 104 102 99 95 93 89 87 86 85 87 92 100 102 99 99 102 104 102
212 214 219 220 215 211 200 198 222 236 241 245 234 175 144 140 177 211 160 107 91 72 62 74 84 95 102 128 156 139 155 164 156 155 151 143 143 146 150 154 158 157 158 160 154 148 149 149 143 140 137 135 133 121 112 109 108 102 83 71 62 62 65 70 85 96 102 102 104 104 98 95 91 90 87 87 89 90 95 99 100 105 110 116 114
215 216 223 227 224 224 212 202 221 238 240 243 228 186 168 174 195 210 129 92 95 90 84 87 94 102 105 119 137 131 138 158 162 160 155 148 144 146 147 148 148 145 151 158 159 154 152 152 144 144 143 138 135 130 124 83 69 100 95 55 47 57 59 66 79 85 90 93 93 96 94 87 80 85 87 86 88 91 94 94 95 100 104 115 125
221 221 225 227 224 229 227 217 226 239 246 244 225 191 179 192 206 207 158 99 99 106 112 106 103 106 110 120 133 136 136 151 168 166 164 161 155 152 147 143 142 142 146 151 157 157 153 149 142 144 145 144 144 140 147 143 63 83 122 357 25 55 55 63 76 75 72 70 67 74 81 74 65 69 78 88 99 101 99 100 96 95 100 108 122
221 222 229 230 225 227 225 224 233 242 250 242 223 198 188 199 196 183 161 130 115 115 128 120 112 114 118 125 137 142 139 149 167 171 171 171 169 162 151 146 145 147 151 152 155 160 162 158 147 146 145 146 152 159 169 171 167 161 183 228 359 52 40 48 61 53 46 45 45 51 61 59 54 52 51 63 92 108 115 116 109 105 103 104 112
210 216 234 241 237 232 229 232 234 239 244 229 212 200 193 195 189 171 135 131 131 139 154 132 120 120 122 127 134 138 138 142 154 169 178 179 177 170 159 159 159 155 153 154 158 162 164 161 157 151 148 148 151 165 179 175 169 172 189 173 164 238 273 265 284 357 359 19 29 29 30 32 37 36 33 39 48 53 94 114 106 116 113 112 120
197 212 231 241 236 233 232 226 222 224 221 207 201 200 191 189 196 170 127 119 121 149 169 153 134 126 126 130 133 135 134 133 139 160 175 178 175 169 164 164 165 167 164 163 166 168 167 166 165 156 152 157 156 164 183 202 173 88 52 116 104 209 239 238 236 267 281 287 328 351 3 6 8 11 14 18 27 29 45 72 56 79 103 102 138
191 208 225 234 226 228 230 218 215 213 206 205 206 202 188 182 188 169 141 123 118 144 158 150 135 125 124 129 137 142 132 128 138 156 166 167 165 165 170 165 163 170 172 174 174 171 171 170 163 153 144 136 133 137 135 175 189 149 140 129 66 46 252 251 234 240 242 249 270 280 296 320 337 334 335 342 351 3 5 32 41 52 48 18 230
195 207 223 229 214 217 218 209 210 208 207 210 206 200 180 169 167 158 152 138 133 146 159 152 132 119 121 119 124 128 120 132 146 153 158 158 163 168 173 172 168 168 169 172 170 168 170 166 155 141 125 116 112 109 103 98 117 140 213 178 104 56 62 56 261 250 238 233 249 260 266 274 298 304 303 308 310 311 297 297 334 3 1 354 331
194 208 221 222 212 214 209 195 190 192 205 207 197 189 170 169 166 152 150 149 148 152 165 163 133 121 123 113 107 101 96 111 124 134 147 151 161 164 164 168 168 167 170 168 162 161 161 154 148 137 121 115 109 99 96 84 72 61 48 116 174 79 59 58 57 43 230 234 253 255 254 264 276 279 284 287 287 291 286 281 298 323 328 333 336
142 163 201 213 212 211 207 200 192 192 199 199 197 188 171 174 171 162 158 149 148 160 181 187 141 125 119 110 109 100 91 87 88 117 158 147 149 151 151 160 159 164 170 160 148 145 139 133 131 128 122 117 113 105 90 72 60 53 49 65 84 74 55 27 30 32 34 17 340 319 297 296 290 278 274 272 268 274 277 273 279 294 296 293 307
120 122 139 180 196 204 207 205 203 201 199 200 206 201 187 183 177 176 171 155 149 164 191 206 161 137 118 98 106 107 106 97 95 119 166 142 143 148 146 149 146 147 151 139 130 126 122 123 121 120 125 128 135 137 84 61 54 57 62 66 68 69 73 66 50 38 34 25 18 1 342 335 322 308 288 275 266 264 267 263 261 271 278 275 279
141 126 116 121 143 180 201 200 202 207 207 209 213 207 198 190 186 189 184 170 162 165 183 203 172 143 125 128 107 80 144 130 117 105 146 119 125 143 144 146 139 130 132 128 122 117 114 118 122 126 134 143 149 127 75 72 74 77 76 72 71 72 79 78 68 67 75 68 58 42 20 8 351 333 311 293 286 279 268 257 252 256 265 273 282
139 130 114 108 125 149 179 188 190 198 207 215 213 205 200 195 196 200 194 188 178 168 175 188 179 157 146 150 120 159 156 140 125 114 142 98 104 132 134 134 130 122 126 126 118 117 117 118 120 125 130 134 132 106 88 89 85 80 75 73 74 75 80 83 75 72 76 72 62 58 49 39 32 18 351 326 311 297 281 266 257 253 256 259 266
130 133 131 132 137 146 169 181 187 188 193 205 204 198 195 198 207 209 197 191 188 173 168 177 183 182 176 162 99 144 154 146 134 137 133 93 114 132 129 127 127 123 125 126 124 122 125 126 121 117 115 111 108 102 95 89 83 79 75 73 75 77 80 82 77 71 69 65 58 55 51 46 45 43 36 28 13 342 295 274 267 259 259 257 255
127 137 141 143 144 138 126 124 215 195 176 178 191 192 198 201 203 205 201 191 186 175 166 171 179 175 162 138 115 130 141 139 137 134 125 105 119 129 131 130 130 129 128 130 134 133 131 128 121 108 97 95 98 96 91 87 82 79 75 73 73 75 76 74 72 70 68 67 62 57 53 52 51 50 48 44 37 32 22 354 312 277 274 273 259
134 138 143 148 156 154 123 78 99 176 169 167 175 180 195 192 183 188 200 194 181 180 174 172 177 178 164 141 130 129 125 125 131 131 123 121 123 120 126 122 115 118 125 130 133 134 131 125 115 103 87 85 89 88 88 85 82 78 73 71 70 69 69 68 67 65 65 66 66 62 58 57 55 53 51 48 44 43 42 37 32 16 343 328 286
137 139 147 142 139 152 133 90 98 140 150 159 160 158 170 169 171 179 191 198 183 176 175 172 178 184 172 157 149 142 129 121 128 130 122 113 119 131 129 122 114 108 115 128 134 129 125 119 108 97 83 80 80 80 84 82 78 77 73 69 67 65 64 62 62 61 60 60 61 60 56 55 54 52 51 49 47 47 46 44 42 42 39 31 15
135 127 143 138 121 132 134 111 109 119 125 137 140 138 150 150 154 165 171 183 177 167 169 171 178 184 179 171 164 159 151 143 140 137 130 121 124 132 133 130 129 123 117 122 130 129 123 115 101 89 77 74 71 68 73 77 76 73 69 67 64 61 59 57 57 55 54 52 51 50 47 45 45 43 43 42 42 43 45 45 43 43 44 41 37
151 130 129 137 131 129 133 127 117 112 119 132 125 120 132 138 145 154 158 168 169 164 162 162 170 176 177 176 172 170 164 154 146 139 139 144 142 139 142 138 132 136 134 127 127 133 130 117 101 90 76 68 64 61 67 76 77 71 67 65 62 61 61 60 58 55 53 50 47 45 42 40 38 36 34 31 30 29 31 34 34 35 36 37 37
159 148 134 143 154 143 136 132 121 111 118 130 127 124 131 140 147 150 151 157 160 156 151 150 158 164 164 167 172 175 172 163 151 142 145 151 147 141 150 151 145 149 149 139 131 128 128 127 116 99 75 67 64 60 68 84 81 70 63 62 64 66 64 63 61 58 55 51 48 45 44 42 39 36 34 30 28 25 22 20 19 18 17 19 21
151 147 144 148 149 144 138 137 132 115 111 127 131 126 131 140 145 148 148 150 148 141 138 139 141 144 147 155 166 170 170 169 161 152 155 159 156 152 151 148 145 149 150 142 136 127 124 130 127 109 70 62 70 63 68 86 82 68 60 60 67 69 65 63 60 58 55 50 47 44 41 40 39 37 35 33 30 27 24 21 17 12 8 4 1
146 143 147 147 141 139 135 140 142 120 105 122 131 125 128 132 134 138 141 143 141 135 137 141 141 139 139 143 152 157 160 166 168 165 162 162 164 163 155 144 137 143 142 137 134 132 131 129 122 109 82 80 84 71 70 82 83 72 60 57 67 68 61 58 55 54 52 47 44 40 37 35 34 33 32 31 29 27 24 21 18 14 10 4 360
151 150 152 150 147 147 139 137 142 126 112 122 128 127 131 132 130 131 135 140 140 138 139 145 149 145 136 133 136 140 145 156 167 174 171 169 176 175 161 152 152 142 125 130 130 133 140 136 126 124 125 116 105 83 75 72 71 74 66 59 65 66 57 52 49 48 45 42 38 33 29 28 26 25 24 23 22 21 19 17 14 12 9 6 2
154 153 154 150 146 149 146 141 136 124 120 124 128 131 136 138 137 134 137 141 139 134 129 131 133 130 126 127 129 129 130 136 150 164 169 169 182 185 170 161 161 155 128 136 130 135 148 144 139 150 145 127 118 98 85 62 49 72 73 62 62 66 59 48 42 40 37 34 30 24 21 20 19 15 12 12 14 12 11 10 7 5 3 2 2
151 153 155 151 148 148 148 146 138 125 120 126 133 135 135 138 139 136 139 142 136 128 125 126 127 123 120 122 125 122 119 118 121 125 128 125 129 153 170 173 171 160 140 132 116 134 149 151 147 151 152 144 130 106 89 63 36 54 69 61 62 66 55 41 37 34 29 25 20 16 14 13 12 10 7 7 7 6 5 3 360 357 355 356 358
151 153 151 150 150 148 146 146 143 137 130 132 138 141 138 136 137 138 140 141 132 122 123 127 128 127 121 119 119 117 113 113 110 108 109 107 99 99 138 171 171 159 143 131 114 136 148 153 155 151 152 154 146 119 88 62 40 39 47 45 56 64 41 30 32 29 21 16 11 9 8 6 6 8 10 13 13 11 8 4 359 353 351 354 357
154 153 151 149 148 147 147 148 149 146 139 138 142 144 144 141 142 145 146 144 132 122 122 125 127 128 121 115 115 113 112 111 108 104 102 103 99 88 102 146 156 154 144 129 117 131 141 146 153 156 159 163 161 147 85 54 44 47 19 353 344 3 342 355 21 20 11 6 1 0 2 359 358 4 8 13 16 15 10 6 3 358 355 358 358
154 151 149 149 148 148 149 148 147 146 142 143 147 147 146 148 152 154 151 145 135 126 125 128 129 130 124 118 116 114 115 113 110 109 104 104 108 102 104 129 141 147 148 135 128 130 139 147 152 155 165 175 182 187 138 50 52 64 19 318 302 313 317 320 360 9 5 0 356 354 353 349 350 0 6 8 12 13 7 2 1 360 359 359 358
155 154 152 152 155 154 150 148 148 149 148 148 151 152 153 156 160 158 154 149 144 138 136 135 133 132 129 125 121 117 118 117 115 117 116 116 118 115 114 125 137 148 155 147 141 139 146 157 156 153 164 181 191 197 210 303 89 88 54 323 300 321 336 352 15 17 12 4 355 349 348 344 344 354 5 6 6 6 2 355 350 347 349 350 351
158 162 159 157 162 162 156 153 152 153 153 153 153 153 155 162 167 165 162 161 157 148 144 144 141 137 133 128 124 122 119 115 115 120 126 126 126 123 117 120 132 146 157 153 149 151 157 162 162 161 167 179 192 201 210 213 187 125 70 89 113 90 68 48 37 25 11 358 349 345 345 341 340 350 2 1 359 356 351 347 342 335 332 334 341
164 169 164 162 172 170 160 157 156 156 155 155 155 155 154 157 160 161 160 156 154 148 145 147 150 148 142 135 132 131 124 118 115 119 126 129 132 131 125 122 127 137 154 158 154 159 165 166 169 177 177 175 188 207 206 196 186 151 118 129 130 105 66 41 28 15 4 355 345 346 351 349 345 350 356 357 353 346 341 339 337 330 322 321 328
170 171 164 166 177 174 166 162 161 160 160 159 160 160 156 149 154 160 158 153 154 154 152 151 153 156 154 148 146 145 140 131 125 124 128 133 142 141 133 133 133 133 142 152 157 168 172 173 178 188 192 185 191 211 210 199 163 140 142 137 138 360 343 340 338 352 0 359 348 352 3 5 359 355 353 349 340 334 334 337 339 333 323 317 320
174 171 167 170 177 174 171 170 167 164 165 165 163 165 163 155 158 163 161 158 161 164 162 159 157 160 161 162 164 164 157 146 140 140 134 129 136 143 143 144 144 139 139 141 146 157 167 175 184 194 196 192 194 190 195 195 166 150 152 125 11 322 326 328 328 346 358 359 348 350 356 355 352 343 336 331 328 329 336 341 342 341 334 325 320
178 172 169 174 180 179 178 178 176 171 170 172 170 170 172 167 165 168 168 167 166 164 164 162 161 161 165 172 175 173 167 159 158 161 154 138 130 137 149 154 155 155 153 148 143 146 158 169 184 199 197 189 188 158 152 168 168 161 188 298 17 332 330 337 339 347 355 351 329 329 333 329 324 320 320 322 326 333 339 339 341 345 346 339 331
186 177 174 179 185 186 186 186 185 179 176 181 183 179 177 176 175 175 178 178 170 164 163 161 162 165 173 181 179 173 172 174 178 179 175 165 149 141 148 157 164 162 154 156 164 164 173 158 142 204 203 199 201 168 143 157 155 125 87 94 39 345 333 339 348 353 351 335 320 315 319 321 320 321 326 332 339 342 340 341 345 347 349 349 344
193 192 188 190 193 194 197 199 195 191 188 188 191 189 185 185 185 184 187 187 181 178 176 172 170 172 178 183 181 178 182 187 190 191 188 186 180 169 162 161 167 167 159 160 162 157 169 116 68 78 166 189 201 166 127 125 119 97 73 38 359 344 333 333 345 358 342 330 325 319 322 329 331 335 341 347 353 354 348 345 341 339 342 344 345
191 196 198 199 203 206 213 220 206 198 197 195 196 199 198 197 195 195 197 196 191 191 189 184 183 183 183 185 184 185 191 195 198 201 200 200 201 199 196 186 183 186 183 178 172 166 166 140 86 85 114 131 151 147 125 112 103 83 24 5 354 347 339 333 336 343 340 336 330 325 329 341 342 339 341 343 344 343 342 341 338 338 342 341 341
186 189 194 201 208 211 217 226 219 202 199 199 200 202 204 205 205 204 205 203 200 201 199 193 190 189 191 195 194 191 194 197 200 203 204 207 208 206 206 201 195 196 198 194 188 184 179 152 126 140 141 137 139 147 143 127 89 23 10 6 357 351 350 344 333 330 336 342 335 326 331 344 342 335 337 343 342 341 344 348 349 348 345 341 337
202 197 201 208 215 217 217 223 225 214 205 204 204 205 206 207 209 210 210 210 208 207 206 202 196 193 195 198 197 193 193 195 199 203 207 211 212 210 208 206 200 198 200 201 197 195 199 191 161 147 152 150 145 145 144 119 26 1 356 354 352 350 348 342 328 324 333 343 338 328 330 342 345 339 342 351 355 359 360 356 353 349 345 343 342
240 231 222 221 226 232 233 231 230 230 225 216 210 209 209 208 209 208 209 211 212 210 207 203 199 198 197 196 195 197 200 200 203 210 217 221 219 215 215 215 210 203 200 202 203 203 204 199 180 156 155 160 155 141 99 17 346 344 345 344 345 343 338 334 329 327 333 343 343 335 334 347 356 353 354 3 4 359 355 351 349 348 349 356 4
257 257 249 239 238 243 248 249 244 242 243 238 230 222 216 213 213 211 209 210 211 209 208 205 201 198 199 201 205 208 209 210 213 216 223 228 226 222 221 221 217 212 209 208 208 209 208 205 200 179 165 172 177 163 16 341 332 337 341 340 339 337 334 334 330 329 335 346 350 347 346 357 2 358 359 4 358 349 349 348 348 348 350 359 5
270 268 264 257 252 251 253 254 252 249 248 248 246 242 236 231 228 224 220 219 221 219 214 211 208 206 208 215 221 223 221 223 228 230 232 233 231 228 224 222 219 216 215 216 217 219 221 222 223 209 184 175 179 195 317 328 334 340 341 338 337 335 337 339 338 340 347 346 344 346 351 356 356 352 349 348 345 346 350 351 350 349 346 345 345
277 273 268 262 259 259 257 257 257 255 253 252 253 253 251 246 241 237 233 232 234 233 221 216 218 217 214 219 227 230 231 233 235 236 237 236 233 229 223 218 217 216 217 219 220 221 221 217 210 201 191 187 202 281 321 331 339 343 343 343 343 348 355 355 353 358 358 342 340 348 353 351 351 348 344 338 337 341 345 343 342 341 338 335 334
306 291 280 271 266 266 264 262 262 262 261 258 257 257 257 253 247 244 243 241 241 236 229 228 230 227 227 233 234 233 235 238 238 234 234 233 228 223 218 213 211 212 207 202 196 192 192 190 186 188 196 215 286 325 339 347 353 357 358 2 5 9 12 7 357 352 343 333 344 355 353 349 349 346 342 336 335 337 334 329 331 329 325 325 328
329 317 304 288 272 265 266 265 263 264 264 264 262 259 259 257 252 247 246 246 244 237 230 235 237 235 235 235 231 232 235 237 237 235 231 226 221 217 214 206 201 199 191 184 184 182 181 184 186 193 213 277 333 353 6 11 13 11 6 8 13 15 15 8 352 344 336 328 343 350 347 345 345 345 344 339 334 333 326 322 326 327 327 331 335
320 316 312 302 284 270 264 263 262 262 261 262 264 263 262 261 257 253 249 247 246 242 234 232 231 230 230 227 230 236 234 230 234 235 227 219 217 216 210 200 194 193 188 184 188 188 185 188 190 189 242 359 12 23 25 15 4 355 350 356 1 1 7 4 355 354 345 320 332 342 344 344 343 346 350 345 336 329 326 328 332 335 337 341 342